STARLINK-30498, 57971

Orbit data source: Space-Track

STARLINK-30498, 57971 is a payload satellite owned by SpaceX/Seattle (US) in LEO that was launched on Sat, 30 Sep 2023 UTC via an FALCON 9 launch vehicle from the Air Force Eastern Test Range (AFETR). Payload-class satellites include a variety of spacecraft equipped with specific instruments for various scientific and technological missions. These include communications satellites like Starlink; space stations such as the ISS; scientific satellites like the Hubble; Earth observation satellites from companies like Planet Labs, Umbra, and HawkEye 360; GPS; miniature CubeSats for education and research; and military/defense satellites.

Loading next visibility...
Identifier
57971, 2023-151H
Orbit
LEO
Country
Flag of USUS
Related business
Manufacturer
SpaceX/Seattle
Mission
Operational Commercial Communications
Bus & Motor
STARLINK V2M, Unknown motor
Mass
730 kg wet, ~700 kg dry
Launch date (UTC)
2023-09-30 (3 years ago)
Launch vehicle
FALCON 9
Launch site
Air Force Eastern Test Range (AFETR)
Object type
Payload
Rocket body
Debris
Shape & HBR
Box + 2 Pan, 17.7 m
Radar Cross Section
33.884 m², Large (>1 m²)

Expand to show TLE details & history
Last TLE update: 14 hours ago

TLE from 14 hours ago
0 STARLINK-30498
1 57971U 23151H   26236.97361635 -.00006402  00000-0 -22299-3 0  9991
2 57971  43.0029 105.5803 0002309 253.2227 106.8371 15.27622028161502
Epoch: 2026-08-24T23:22Z
TLE epoch observation values (Epoch: 2026-08-24T23:22:00.452Z)
Latitude
-0.00006°
Longitude
141.83072°
Altitude
483.158 km
Speed
7.625 km/s
True Right ascension
07h 02m 19s
True Declination
0° 00' 00"
Sunlit
Object was in daylight at epoch
Visualization orbit readout
Latitude
Unknown
Longitude
Unknown
Altitude
Unknown
Speed
Unknown
Apparent Right ascension
Unknown
Apparent Declination
Unknown
Sunlit
N/A
Visualization observer readout
Local Sidereal Time
04:08:38
Azimuth
Unknown
Elevation
Unknown
Doppler factor
Unknown
Orbital elements
Apogee altitude
486.453 km
Perigee altitude
483.283 km
Semi-major axis
6,863.005 km
Eccentricity
0.00023
Inclination
43.0029°
RAAN
105.5803°
Arg. of periapsis
253.2227°
True anomaly
106.86242°
Mean anomaly
106.8371°
Eccentric anomaly
106.84976°
Mean motion
3.81744 °/min
Orbital period
94.3 mins
BSTAR
-0.00022299
Loading maneuver chart data...
Computing Atmospheric mass density...
Loading historical data...
Loading historical data...
Loading historical data...
Loading historical data...
Loading historical data...
Loading historical data...
Loading historical data...

Documentation

Showing up to 5 results
|